DAL2022 KMDW-KMSP

Flight info

Callsign DAL2022
Flight time 1h 3m
Altitude 32000
Route PMPKN NEATO DLLAN RONIC KAMMA KKILR4
Aircraft E175/L-VGDW/C

Departure

Time 2026-05-05 22:23
Airport Chicago Midway International Airport (KMDW)

Arrival

Time 2026-05-05 23:27
Airport Minneapolis–Saint Paul International Airport / Wold–Chamberlain Field (KMSP)
Time Latitude Longitude Altitude Speed Heading
2026-05-05 22:06 41.78629 -87.74255 627 ft 0 kts 123°
2026-05-05 22:14 41.78631 -87.74257 627 ft 2 kts 123°
2026-05-05 22:14 41.78647 -87.74284 627 ft 4 kts 138°
2026-05-05 22:15 41.78669 -87.74299 637 ft 4 kts 183°
2026-05-05 22:15 41.78682 -87.74291 633 ft 1 kts 223°
2026-05-05 22:15 41.78684 -87.74289 633 ft 0 kts 223°
2026-05-05 22:17 41.78683 -87.74290 633 ft 1 kts 223°
2026-05-05 22:17 41.78662 -87.74318 637 ft 5 kts 222°
2026-05-05 22:18 41.78630 -87.74357 627 ft 7 kts 220°
2026-05-05 22:18 41.78588 -87.74408 627 ft 9 kts 225°
2026-05-05 22:18 41.78538 -87.74473 635 ft 11 kts 223°
2026-05-05 22:18 41.78517 -87.74499 629 ft 0 kts 223°
2026-05-05 22:19 41.78516 -87.74501 630 ft 2 kts 223°
2026-05-05 22:19 41.78494 -87.74528 635 ft 6 kts 222°
2026-05-05 22:19 41.78453 -87.74550 633 ft 7 kts 165°
2026-05-05 22:20 41.78409 -87.74504 627 ft 9 kts 131°
2026-05-05 22:20 41.78362 -87.74438 627 ft 11 kts 141°
2026-05-05 22:20 41.78289 -87.74400 632 ft 12 kts 156°
2026-05-05 22:20 41.78220 -87.74358 633 ft 8 kts 185°
2026-05-05 22:21 41.78163 -87.74363 633 ft 6 kts 179°
2026-05-05 22:21 41.78157 -87.74363 633 ft 0 kts 179°
2026-05-05 22:21 41.78156 -87.74363 632 ft 0 kts 179°
2026-05-05 22:22 41.78140 -87.74363 632 ft 7 kts 178°
2026-05-05 22:22 41.78081 -87.74360 631 ft 10 kts 177°
2026-05-05 22:22 41.78019 -87.74383 629 ft 10 kts 218°
2026-05-05 22:23 41.78001 -87.74474 630 ft 13 kts 302°
2026-05-05 22:23 41.78199 -87.74758 627 ft 82 kts 313°
2026-05-05 22:23 41.78771 -87.75563 648 ft 153 kts 313°
2026-05-05 22:23 41.79571 -87.76688 1332 ft 179 kts 310°
2026-05-05 22:24 41.80103 -87.78269 2116 ft 198 kts 277°
2026-05-05 22:24 41.79852 -87.79973 2771 ft 192 kts 247°
2026-05-05 22:24 41.79200 -87.81725 3366 ft 227 kts 245°
2026-05-05 22:24 41.78600 -87.83835 3794 ft 257 kts 261°
2026-05-05 22:25 41.78739 -87.86170 3588 ft 248 kts 294°
2026-05-05 22:25 41.79729 -87.87858 3770 ft 225 kts 317°
2026-05-05 22:25 41.81009 -87.89030 3648 ft 219 kts 332°
2026-05-05 22:25 41.82473 -87.89711 3916 ft 231 kts 346°
2026-05-05 22:26 41.84112 -87.89907 4738 ft 244 kts 358°
2026-05-05 22:26 41.85822 -87.89691 5499 ft 255 kts
2026-05-05 22:26 41.87557 -87.89067 6343 ft 263 kts 17°
2026-05-05 22:26 41.89222 -87.87936 6997 ft 278 kts 27°
2026-05-05 22:27 41.90900 -87.86542 7635 ft 288 kts 28°
2026-05-05 22:27 41.92630 -87.85096 8321 ft 297 kts 25°
2026-05-05 22:27 41.94510 -87.83921 9052 ft 300 kts 13°
2026-05-05 22:27 41.96551 -87.83322 9805 ft 300 kts 357°
2026-05-05 22:28 41.98639 -87.83418 10392 ft 307 kts 346°
2026-05-05 22:28 42.00811 -87.83889 10827 ft 322 kts 342°
2026-05-05 22:28 42.03016 -87.84525 11639 ft 325 kts 340°
2026-05-05 22:28 42.05204 -87.85195 12542 ft 328 kts 340°
2026-05-05 22:29 42.07439 -87.85900 13512 ft 331 kts 339°
2026-05-05 22:29 42.09686 -87.86614 14466 ft 332 kts 339°
2026-05-05 22:29 42.11927 -87.87327 15492 ft 331 kts 338°
2026-05-05 22:29 42.14174 -87.88042 16455 ft 333 kts 338°
2026-05-05 22:30 42.16440 -87.88760 17363 ft 336 kts 338°
2026-05-05 22:30 42.18718 -87.89479 18312 ft 336 kts 337°
2026-05-05 22:30 42.21018 -87.90205 18960 ft 343 kts 337°
2026-05-05 22:30 42.23372 -87.90946 19603 ft 351 kts 336°
2026-05-05 22:31 42.25752 -87.91691 20236 ft 359 kts 336°
2026-05-05 22:31 42.28212 -87.92456 20860 ft 366 kts 336°
2026-05-05 22:31 42.30720 -87.93218 21456 ft 376 kts 339°
2026-05-05 22:31 42.33359 -87.93675 22020 ft 388 kts 344°
2026-05-05 22:32 42.36081 -87.93986 22576 ft 396 kts 345°
2026-05-05 22:32 42.38846 -87.94292 23169 ft 402 kts 345°
2026-05-05 22:32 42.41632 -87.94607 23798 ft 403 kts 343°
2026-05-05 22:32 42.44425 -87.94932 24400 ft 404 kts 343°
2026-05-05 22:33 42.47235 -87.95265 24984 ft 406 kts 343°
2026-05-05 22:33 42.50021 -87.95603 25566 ft 408 kts 343°
2026-05-05 22:33 42.52858 -87.95961 26125 ft 411 kts 343°
2026-05-05 22:33 42.55714 -87.96320 26666 ft 413 kts 342°
2026-05-05 22:34 42.58584 -87.96680 27193 ft 416 kts 342°
2026-05-05 22:34 42.61467 -87.97039 27804 ft 416 kts 342°
2026-05-05 22:34 42.64371 -87.97365 28278 ft 422 kts 344°
2026-05-05 22:34 42.67319 -87.97561 28742 ft 426 kts 345°
2026-05-05 22:35 42.70288 -87.97742 29198 ft 427 kts 344°
2026-05-05 22:35 42.73100 -87.98430 29574 ft 405 kts 327°
2026-05-05 22:35 42.75550 -88.00093 30046 ft 390 kts 318°
2026-05-05 22:35 42.77912 -88.01915 30508 ft 389 kts 317°
2026-05-05 22:36 42.80258 -88.03740 30969 ft 388 kts 317°
2026-05-05 22:36 42.82598 -88.05564 31422 ft 387 kts 317°
2026-05-05 22:36 42.84933 -88.07388 31865 ft 386 kts 317°
2026-05-05 22:36 42.87261 -88.09209 32111 ft 390 kts 316°
2026-05-05 22:37 42.89628 -88.11088 32104 ft 398 kts 316°
2026-05-05 22:37 42.94478 -88.14928 31976 ft 409 kts 317°
2026-05-05 22:38 42.99423 -88.18825 31985 ft 411 kts 317°
2026-05-05 22:38 43.04379 -88.22741 31993 ft 411 kts 317°
2026-05-05 22:39 43.09328 -88.26664 31990 ft 411 kts 317°
2026-05-05 22:39 43.11630 -88.28797 31999 ft 396 kts 307°
2026-05-05 22:39 43.13440 -88.31504 32008 ft 382 kts 299°
2026-05-05 22:40 43.16845 -88.37127 31997 ft 383 kts 299°
2026-05-05 22:40 43.20203 -88.42780 31978 ft 382 kts 299°
2026-05-05 22:41 43.23535 -88.48471 31959 ft 381 kts 298°
2026-05-05 22:41 43.26831 -88.54120 31985 ft 382 kts 298°
2026-05-05 22:42 43.30148 -88.59818 31990 ft 382 kts 298°
2026-05-05 22:42 43.33462 -88.65526 31992 ft 382 kts 298°
2026-05-05 22:43 43.36773 -88.71235 31991 ft 382 kts 298°
2026-05-05 22:43 43.40083 -88.76952 31993 ft 382 kts 298°
2026-05-05 22:44 43.43367 -88.82639 31973 ft 383 kts 298°
2026-05-05 22:44 43.46660 -88.88352 31991 ft 380 kts 298°
2026-05-05 22:45 43.49945 -88.94063 31996 ft 381 kts 298°
2026-05-05 22:45 43.53232 -88.99786 31999 ft 380 kts 298°
2026-05-05 22:46 43.56489 -89.05469 31998 ft 381 kts 298°
2026-05-05 22:46 43.59769 -89.11202 32003 ft 380 kts 298°
2026-05-05 22:47 43.63042 -89.16937 32043 ft 380 kts 298°
2026-05-05 22:47 43.66294 -89.22642 32005 ft 378 kts 298°
2026-05-05 22:48 43.69512 -89.28300 32006 ft 376 kts 298°
2026-05-05 22:48 43.72744 -89.33996 32003 ft 377 kts 298°
2026-05-05 22:49 43.75975 -89.39701 32002 ft 377 kts 298°
2026-05-05 22:49 43.79202 -89.45409 32007 ft 377 kts 298°
2026-05-05 22:50 43.82409 -89.51086 32008 ft 377 kts 298°
2026-05-05 22:50 43.85630 -89.56796 32013 ft 376 kts 298°
2026-05-05 22:51 43.88846 -89.62511 32008 ft 376 kts 298°
2026-05-05 22:51 43.92058 -89.68229 32004 ft 376 kts 298°
2026-05-05 22:52 43.95246 -89.73916 32004 ft 376 kts 298°
2026-05-05 22:52 43.98451 -89.79647 32001 ft 376 kts 298°
2026-05-05 22:53 44.01655 -89.85383 32005 ft 376 kts 298°
2026-05-05 22:53 44.04853 -89.91121 32006 ft 374 kts 297°
2026-05-05 22:54 44.08023 -89.96821 32015 ft 375 kts 297°
2026-05-05 22:54 44.11340 -90.02491 32002 ft 379 kts 298°
2026-05-05 22:55 44.14681 -90.08157 32006 ft 379 kts 298°
2026-05-05 22:55 44.18009 -90.13845 32011 ft 378 kts 298°
2026-05-05 22:56 44.21329 -90.19537 32011 ft 378 kts 298°
2026-05-05 22:56 44.24616 -90.25182 32013 ft 375 kts 298°
2026-05-05 22:57 44.27910 -90.30853 32026 ft 376 kts 298°
2026-05-05 22:57 44.31201 -90.36532 32033 ft 376 kts 298°
2026-05-05 22:58 44.34396 -90.42293 32045 ft 367 kts 291°
2026-05-05 22:58 44.36419 -90.48709 32048 ft 362 kts 286°
2026-05-05 22:59 44.38415 -90.55092 32040 ft 360 kts 285°
2026-05-05 22:59 44.40352 -90.61553 32031 ft 360 kts 285°
2026-05-05 23:00 44.43222 -90.71253 32034 ft 359 kts 285°
2026-05-05 23:00 44.45121 -90.77670 32038 ft 360 kts 285°
2026-05-05 23:01 44.47031 -90.84154 32041 ft 360 kts 285°
2026-05-05 23:01 44.48938 -90.90630 31854 ft 354 kts 285°
2026-05-05 23:02 44.49859 -90.93732 31628 ft 335 kts 284°
2026-05-05 23:02 44.50731 -90.96676 31330 ft 320 kts 284°
2026-05-05 23:02 44.51566 -90.99525 30843 ft 312 kts 283°
2026-05-05 23:02 44.52373 -91.02286 30467 ft 302 kts 283°
2026-05-05 23:03 44.53148 -91.04951 30056 ft 298 kts 282°
2026-05-05 23:03 44.53931 -91.07657 29652 ft 303 kts 282°
2026-05-05 23:03 44.54725 -91.10416 29276 ft 308 kts 282°
2026-05-05 23:03 44.55539 -91.13226 28839 ft 313 kts 283°
2026-05-05 23:04 44.56361 -91.16053 28429 ft 315 kts 283°
2026-05-05 23:04 44.57192 -91.18909 28020 ft 316 kts 283°
2026-05-05 23:04 44.58023 -91.21768 27570 ft 318 kts 283°
2026-05-05 23:04 44.58854 -91.24625 27165 ft 315 kts 284°
2026-05-05 23:05 44.59679 -91.27463 26741 ft 313 kts 284°
2026-05-05 23:05 44.60486 -91.30248 26331 ft 311 kts 284°
2026-05-05 23:05 44.61293 -91.33048 25907 ft 309 kts 284°
2026-05-05 23:05 44.62094 -91.35832 25529 ft 305 kts 284°
2026-05-05 23:06 44.62887 -91.38582 25091 ft 304 kts 284°
2026-05-05 23:06 44.63680 -91.41323 24715 ft 302 kts 284°
2026-05-05 23:06 44.64469 -91.44056 24304 ft 302 kts 284°
2026-05-05 23:06 44.65259 -91.46796 23740 ft 303 kts 285°
2026-05-05 23:07 44.66040 -91.49505 23366 ft 297 kts 285°
2026-05-05 23:07 44.66814 -91.52198 22999 ft 297 kts 285°
2026-05-05 23:07 44.67579 -91.54879 22585 ft 303 kts 285°
2026-05-05 23:07 44.68366 -91.57629 22203 ft 304 kts 286°
2026-05-05 23:08 44.69158 -91.60398 21781 ft 306 kts 287°
2026-05-05 23:08 44.69957 -91.63184 21378 ft 308 kts 287°
2026-05-05 23:08 44.70756 -91.65981 20977 ft 310 kts 287°
2026-05-05 23:08 44.71562 -91.68800 20565 ft 311 kts 288°
2026-05-05 23:09 44.72371 -91.71634 20155 ft 314 kts 288°
2026-05-05 23:09 44.73184 -91.74489 19736 ft 316 kts 288°
2026-05-05 23:09 44.73992 -91.77330 19323 ft 318 kts 289°
2026-05-05 23:09 44.74815 -91.80226 18895 ft 320 kts 289°
2026-05-05 23:10 44.75644 -91.83144 18470 ft 322 kts 289°
2026-05-05 23:10 44.76477 -91.86080 18013 ft 324 kts 290°
2026-05-05 23:10 44.77305 -91.89013 17624 ft 321 kts 289°
2026-05-05 23:10 44.78101 -91.91943 17181 ft 320 kts 289°
2026-05-05 23:11 44.78886 -91.94860 16778 ft 318 kts 289°
2026-05-05 23:11 44.79670 -91.97760 16346 ft 316 kts 289°
2026-05-05 23:11 44.80450 -92.00634 16033 ft 314 kts 289°
2026-05-05 23:11 44.81217 -92.03476 15590 ft 314 kts 289°
2026-05-05 23:12 44.81991 -92.06336 15178 ft 311 kts 290°
2026-05-05 23:12 44.82757 -92.09172 14761 ft 309 kts 290°
2026-05-05 23:12 44.83511 -92.11962 14351 ft 301 kts 290°
2026-05-05 23:12 44.84246 -92.14689 13956 ft 294 kts 290°
2026-05-05 23:13 44.84960 -92.17350 13559 ft 287 kts 288°
2026-05-05 23:13 44.85337 -92.20051 13208 ft 277 kts 276°
2026-05-05 23:13 44.85518 -92.22723 12834 ft 271 kts 276°
2026-05-05 23:13 44.85688 -92.25346 12468 ft 267 kts 275°
2026-05-05 23:14 44.85844 -92.27934 12133 ft 264 kts 276°
2026-05-05 23:14 44.86008 -92.30479 11792 ft 264 kts 276°
2026-05-05 23:14 44.86172 -92.33061 11432 ft 265 kts 276°
2026-05-05 23:14 44.86309 -92.35650 11078 ft 265 kts 275°
2026-05-05 23:15 44.86428 -92.38233 10727 ft 263 kts 274°
2026-05-05 23:15 44.86550 -92.40806 10377 ft 262 kts 274°
2026-05-05 23:15 44.86671 -92.43360 10036 ft 261 kts 274°
2026-05-05 23:15 44.86793 -92.45906 9674 ft 259 kts 274°
2026-05-05 23:16 44.86771 -92.48423 9354 ft 257 kts 260°
2026-05-05 23:16 44.86128 -92.50745 9038 ft 260 kts 246°
2026-05-05 23:16 44.85312 -92.53025 8658 ft 262 kts 246°
2026-05-05 23:16 44.84483 -92.55304 8314 ft 261 kts 246°
2026-05-05 23:17 44.83657 -92.57572 7968 ft 259 kts 246°
2026-05-05 23:17 44.82836 -92.59822 7621 ft 258 kts 246°
2026-05-05 23:17 44.82019 -92.62073 7312 ft 256 kts 246°
2026-05-05 23:17 44.81216 -92.64284 7196 ft 252 kts 246°
2026-05-05 23:18 44.80414 -92.66484 7065 ft 254 kts 246°
2026-05-05 23:18 44.79606 -92.68680 6975 ft 248 kts 246°
2026-05-05 23:18 44.78834 -92.70768 6945 ft 233 kts 246°
2026-05-05 23:18 44.78115 -92.72714 6904 ft 221 kts 246°
2026-05-05 23:19 44.77424 -92.74626 6701 ft 215 kts 251°
2026-05-05 23:19 44.77214 -92.76630 6600 ft 204 kts 276°
2026-05-05 23:19 44.77340 -92.78608 6532 ft 203 kts 276°
2026-05-05 23:19 44.77464 -92.80616 6342 ft 209 kts 277°
2026-05-05 23:20 44.77601 -92.82659 6069 ft 210 kts 277°
2026-05-05 23:20 44.77739 -92.84692 5833 ft 208 kts 277°
2026-05-05 23:20 44.77876 -92.86706 5584 ft 206 kts 277°
2026-05-05 23:20 44.78011 -92.88708 5348 ft 205 kts 277°
2026-05-05 23:21 44.78150 -92.90675 5146 ft 205 kts 277°
2026-05-05 23:21 44.78289 -92.92674 4895 ft 206 kts 277°
2026-05-05 23:21 44.78427 -92.94680 4664 ft 205 kts 277°
2026-05-05 23:21 44.78561 -92.96668 4446 ft 203 kts 277°
2026-05-05 23:22 44.78700 -92.98637 4199 ft 201 kts 278°
2026-05-05 23:22 44.78943 -93.00528 3929 ft 194 kts 293°
2026-05-05 23:22 44.79589 -93.02155 3690 ft 186 kts 301°
2026-05-05 23:22 44.80235 -93.03649 3498 ft 173 kts 301°
2026-05-05 23:23 44.80844 -93.05063 3239 ft 166 kts 300°
2026-05-05 23:23 44.81421 -93.06427 3025 ft 159 kts 300°
2026-05-05 23:23 44.82020 -93.07757 2876 ft 171 kts 302°
2026-05-05 23:23 44.82679 -93.09239 2606 ft 180 kts 301°
2026-05-05 23:24 44.83288 -93.10660 2400 ft 158 kts 300°
2026-05-05 23:24 44.83811 -93.11876 2190 ft 132 kts 301°
2026-05-05 23:24 44.84261 -93.12934 1957 ft 124 kts 301°
2026-05-05 23:24 44.84690 -93.13940 1745 ft 115 kts 301°
2026-05-05 23:25 44.85112 -93.14909 1572 ft 119 kts 302°
2026-05-05 23:25 44.85499 -93.15743 1477 ft 114 kts 303°
2026-05-05 23:25 44.85919 -93.16718 1450 ft 119 kts 300°
2026-05-05 23:25 44.86325 -93.17718 1363 ft 121 kts 299°
2026-05-05 23:26 44.86725 -93.18709 1160 ft 113 kts 303°
2026-05-05 23:26 44.87147 -93.19651 945 ft 115 kts 303°
2026-05-05 23:26 44.87561 -93.20601 834 ft 111 kts 303°
2026-05-05 23:26 44.87904 -93.21391 819 ft 74 kts 300°
2026-05-05 23:27 44.88089 -93.21821 821 ft 34 kts 301°
2026-05-05 23:27 44.88186 -93.22002 821 ft 16 kts 339°
2026-05-05 23:27 44.88282 -93.21963 823 ft 15 kts 36°
2026-05-05 23:27 44.88367 -93.21867 820 ft 17 kts 48°
2026-05-05 23:28 44.88453 -93.21744 820 ft 19 kts 45°
2026-05-05 23:28 44.88504 -93.21611 823 ft 15 kts 90°
2026-05-05 23:28 44.88470 -93.21540 823 ft 6 kts 187°
2026-05-05 23:28 44.88424 -93.21560 823 ft 6 kts 198°
2026-05-05 23:29 44.88417 -93.21563 823 ft 0 kts 197°